ED2YAA-3 Weather Reports


time (UTC)temp
F
wind
direction
speed
knots
gust
knots
rain 1hr
in
rain 24hr
in
rain mn
in
humidity
%
barometer
mb
20260506163518 58 158 0.0 0.0 0.00 0.00 0.00 79 993.4
20260506154454 59 158 0.0 0.0 0.00 0.00 0.00 76 993.8
20260506153520 59 166 0.0 2.6 0.00 0.00 0.00 75 993.8
20260506144454 62 112 0.0 0.0 0.00 0.00 0.00 70 993.8
20260506143519 63 112 0.0 0.0 0.00 0.00 0.00 69 993.9
20260506134453 61 135 0.0 0.0 0.00 0.00 0.00 69 994.4
20260506133517 62 135 0.0 0.0 0.00 0.00 0.00 67 994.3
20260506124452 63 338 0.0 0.0 0.00 0.00 0.00 61 993.7
20260506123518 64 322 0.0 0.0 0.00 0.00 0.00 60 993.7
20260506114453 63 2 0.0 0.0 0.00 0.00 0.00 64 993.9
20260506113517 62 0 0.0 0.0 0.00 0.00 0.00 63 993.9
20260506104453 67 354 0.0 0.0 0.00 0.00 0.00 56 993.6
20260506103517 67 0 0.0 0.0 0.00 0.00 0.00 58 993.6
20260506094452 65 90 0.0 0.0 0.00 0.00 0.00 63 993.9
20260506093516 64 90 0.0 0.0 0.00 0.00 0.00 63 993.7
20260506084454 68 68 0.0 0.0 0.00 0.00 0.00 64 993.6
20260506083518 68 68 0.0 0.0 0.00 0.00 0.00 64 993.6
20260506073516 60 22 0.0 0.0 0.00 0.00 0.00 77 993.7
20260506070321 54 68 0.0 0.0 0.00 0.00 0.00 84 993.7
20260506060321 50 112 0.0 0.0 0.00 0.00 0.00 88 993.3
20260506050321 49 112 0.0 0.0 0.00 0.00 0.00 87 993.2
20260506043517 50 112 0.0 0.0 0.00 0.00 0.00 87 993.1
20260506040321 50 112 0.0 0.0 0.00 0.00 0.00 87 993.2
20260506033516 49 112 0.0 0.0 0.00 0.00 0.00 87 993.3
20260506030319 50 112 0.0 0.0 0.00 0.00 0.00 87 993.3
20260506023515 50 112 0.0 0.0 0.00 0.00 0.00 86 993.0
20260506020320 51 112 0.0 0.0 0.00 0.00 0.00 86 993.5
20260506013517 51 112 0.0 0.0 0.00 0.00 0.00 86 993.6
20260506010320 51 90 0.0 0.0 0.00 0.00 0.00 86 993.6
20260506003515 51 90 0.0 0.0 0.00 0.00 0.00 86 994.0
20260506000320 51 90 0.0 0.0 0.00 0.00 0.00 86 994.0
20260505233516 51 90 0.0 0.0 0.00 0.00 0.00 86 994.1
20260505230320 51 90 0.0 0.0 0.00 0.00 0.00 86 994.1
20260505224339 51 90 0.0 0.0 0.00 0.00 0.00 86 994.1
20260505223516 51 90 0.0 0.0 0.00 0.00 0.00 86 994.3
20260505214338 51 90 0.0 0.0 0.00 0.00 0.00 85 994.3
20260505213515 51 90 0.0 0.0 0.00 0.00 0.00 85 994.4
20260505204339 53 79 0.0 0.0 0.00 0.00 0.00 83 994.2
20260505203516 53 90 0.0 0.0 0.00 0.00 0.00 83 994.4
20260505194338 55 112 0.0 0.0 0.00 0.00 0.00 81 993.9
20260505193516 55 112 0.0 0.0 0.00 0.00 0.00 81 993.7
20260505184339 56 112 0.0 0.0 0.00 0.00 0.00 78 993.6
20260505183516 57 112 0.0 0.0 0.00 0.00 0.00 77 993.6
20260505174338 58 112 0.0 0.0 0.00 0.00 0.00 75 993.5
20260505173515 58 135 0.0 0.0 0.00 0.00 0.00 75 993.3